(°C)
20°
21°
23°
25°
27°
29°
30°
(°C)
21°
23°
25°
26°
29°
30°
32°
SO
E
E
E
E
ESE
NNE
(km/h)
3-6
2-5
4-6
5-7
6-9
6-13
6-14
(mm)
0
0
0
0
0
0
0
(%)
0
0
0
0
0
0
0

Élévation du soleil

/ 14.7°
sun-icon
UV 6
04:50
21:17
Gibbeuse croissante (107°)
14:28
01:55

METAR pour 50.1°N 14.27°E (LKPR)

Heure Conditions Température/
Point de rosée
Vent Visibilité Météo Nuages Pression Changement Brut
VFR 20°C / 15°C variable 0kt >10km - Clouds and Visibility OK 1016 No Significant change LKPR 190430Z 00000KT CAVOK 20/15 Q1016 NOSIG
VFR 17°C / 14°C variable 1kt >10km - Clouds and Visibility OK 1016 No Significant change LKPR 190400Z VRB01KT CAVOK 17/14 Q1016 NOSIG
VFR 17°C / 14°C variable 2kt >10km - Clouds and Visibility OK 1016 No Significant change LKPR 190330Z VRB02KT CAVOK 17/14 Q1016 NOSIG
VFR 17°C / 14°C variable 2kt >10km - Clouds and Visibility OK 1016 No Significant change LKPR 190300Z VRB02KT CAVOK 17/14 Q1016 NOSIG
VFR 17°C / 14°C variable 0kt >10km - Clouds and Visibility OK 1016 No Significant change LKPR 190230Z 00000KT CAVOK 17/14 Q1016 NOSIG
VFR 17°C / 14°C 330º variable 300º to 010º 4kt >10km - Clouds and Visibility OK 1016 No Significant change LKPR 190200Z 33004KT 300V010 CAVOK 17/14 Q1016 NOSIG
VFR 20°C / 14°C 140º 6kt >10km - Clouds and Visibility OK 1015 No Significant change LKPR 190130Z 14006KT CAVOK 20/14 Q1015 NOSIG
VFR 19°C / 14°C 160º 6kt >10km - Clouds and Visibility OK 1016 No Significant change LKPR 190100Z 16006KT CAVOK 19/14 Q1016 NOSIG
VFR 19°C / 14°C 160º 7kt >10km - Clouds and Visibility OK 1016 No Significant change LKPR 190030Z 16007KT CAVOK 19/14 Q1016 NOSIG
VFR 19°C / 14°C 160º 8kt >10km - Clouds and Visibility OK 1016 No Significant change LKPR 190000Z 16008KT CAVOK 19/14 Q1016 NOSIG
VFR 19°C / 14°C 170º 5kt >10km - Clouds and Visibility OK 1016 No Significant change LKPR 182330Z 17005KT CAVOK 19/14 Q1016 NOSIG
VFR 20°C / 14°C 160º 7kt >10km - Clouds and Visibility OK 1016 No Significant change LKPR 182300Z 16007KT CAVOK 20/14 Q1016 NOSIG
VFR 22°C / 14°C 150º 8kt >10km - Clouds and Visibility OK 1016 No Significant change LKPR 182230Z 15008KT CAVOK 22/14 Q1016 NOSIG
VFR 22°C / 14°C 150º 8kt >10km - Clouds and Visibility OK 1016 No Significant change LKPR 182200Z 15008KT CAVOK 22/14 Q1016 NOSIG
VFR 23°C / 14°C 140º 7kt >10km - Clouds and Visibility OK 1016 No Significant change LKPR 182130Z 14007KT CAVOK 23/14 Q1016 NOSIG
VFR 23°C / 14°C 140º 8kt >10km - Clouds and Visibility OK 1016 No Significant change LKPR 182100Z 14008KT CAVOK 23/14 Q1016 NOSIG
VFR 23°C / 14°C 130º 9kt >10km - Clouds and Visibility OK 1016 No Significant change LKPR 182030Z 13009KT CAVOK 23/14 Q1016 NOSIG
VFR 23°C / 14°C 130º 9kt >10km - Clouds and Visibility OK 1015 No Significant change LKPR 182000Z 13009KT CAVOK 23/14 Q1015 NOSIG
VFR 24°C / 14°C 130º 8kt >10km - Clouds and Visibility OK 1015 No Significant change LKPR 181930Z 13008KT CAVOK 24/14 Q1015 NOSIG
VFR 25°C / 14°C 130º 9kt >10km - Clouds and Visibility OK 1015 No Significant change LKPR 181900Z 13009KT CAVOK 25/14 Q1015 NOSIG
VFR 27°C / 14°C 130º 9kt >10km - Clouds and Visibility OK 1015 No Significant change LKPR 181830Z 13009KT CAVOK 27/14 Q1015 NOSIG
VFR 27°C / 15°C 130º 11kt >10km - Clouds and Visibility OK 1015 No Significant change LKPR 181800Z 13011KT CAVOK 27/15 Q1015 NOSIG
VFR 29°C / 14°C 130º 8kt >10km - Clouds and Visibility OK 1015 No Significant change LKPR 181730Z 13008KT CAVOK 29/14 Q1015 NOSIG
VFR 29°C / 14°C 140º 8kt >10km - Clouds and Visibility OK 1015 No Significant change LKPR 181700Z 14008KT CAVOK 29/14 Q1015 NOSIG

VFR

20°C / 15°C

[Plus]
Vent variable 0kt
Visibilité >10km
Météo -
Nuages Clouds and Visibility OK
Pression 1016
Changement No Significant change
Brut LKPR 190430Z 00000KT CAVOK 20/15 Q1016 NOSIG

VFR

17°C / 14°C

[Plus]
Vent variable 1kt
Visibilité >10km
Météo -
Nuages Clouds and Visibility OK
Pression 1016
Changement No Significant change
Brut LKPR 190400Z VRB01KT CAVOK 17/14 Q1016 NOSIG

VFR

17°C / 14°C

[Plus]
Vent variable 2kt
Visibilité >10km
Météo -
Nuages Clouds and Visibility OK
Pression 1016
Changement No Significant change
Brut LKPR 190330Z VRB02KT CAVOK 17/14 Q1016 NOSIG

VFR

17°C / 14°C

[Plus]
Vent variable 2kt
Visibilité >10km
Météo -
Nuages Clouds and Visibility OK
Pression 1016
Changement No Significant change
Brut LKPR 190300Z VRB02KT CAVOK 17/14 Q1016 NOSIG

VFR

17°C / 14°C

[Plus]
Vent variable 0kt
Visibilité >10km
Météo -
Nuages Clouds and Visibility OK
Pression 1016
Changement No Significant change
Brut LKPR 190230Z 00000KT CAVOK 17/14 Q1016 NOSIG

VFR

17°C / 14°C

[Plus]
Vent 330º variable 300º to 010º 4kt
Visibilité >10km
Météo -
Nuages Clouds and Visibility OK
Pression 1016
Changement No Significant change
Brut LKPR 190200Z 33004KT 300V010 CAVOK 17/14 Q1016 NOSIG

VFR

20°C / 14°C

[Plus]
Vent 140º 6kt
Visibilité >10km
Météo -
Nuages Clouds and Visibility OK
Pression 1015
Changement No Significant change
Brut LKPR 190130Z 14006KT CAVOK 20/14 Q1015 NOSIG

VFR

19°C / 14°C

[Plus]
Vent 160º 6kt
Visibilité >10km
Météo -
Nuages Clouds and Visibility OK
Pression 1016
Changement No Significant change
Brut LKPR 190100Z 16006KT CAVOK 19/14 Q1016 NOSIG

VFR

19°C / 14°C

[Plus]
Vent 160º 7kt
Visibilité >10km
Météo -
Nuages Clouds and Visibility OK
Pression 1016
Changement No Significant change
Brut LKPR 190030Z 16007KT CAVOK 19/14 Q1016 NOSIG

VFR

19°C / 14°C

[Plus]
Vent 160º 8kt
Visibilité >10km
Météo -
Nuages Clouds and Visibility OK
Pression 1016
Changement No Significant change
Brut LKPR 190000Z 16008KT CAVOK 19/14 Q1016 NOSIG

VFR

19°C / 14°C

[Plus]
Vent 170º 5kt
Visibilité >10km
Météo -
Nuages Clouds and Visibility OK
Pression 1016
Changement No Significant change
Brut LKPR 182330Z 17005KT CAVOK 19/14 Q1016 NOSIG

VFR

20°C / 14°C

[Plus]
Vent 160º 7kt
Visibilité >10km
Météo -
Nuages Clouds and Visibility OK
Pression 1016
Changement No Significant change
Brut LKPR 182300Z 16007KT CAVOK 20/14 Q1016 NOSIG

VFR

22°C / 14°C

[Plus]
Vent 150º 8kt
Visibilité >10km
Météo -
Nuages Clouds and Visibility OK
Pression 1016
Changement No Significant change
Brut LKPR 182230Z 15008KT CAVOK 22/14 Q1016 NOSIG

VFR

22°C / 14°C

[Plus]
Vent 150º 8kt
Visibilité >10km
Météo -
Nuages Clouds and Visibility OK
Pression 1016
Changement No Significant change
Brut LKPR 182200Z 15008KT CAVOK 22/14 Q1016 NOSIG

VFR

23°C / 14°C

[Plus]
Vent 140º 7kt
Visibilité >10km
Météo -
Nuages Clouds and Visibility OK
Pression 1016
Changement No Significant change
Brut LKPR 182130Z 14007KT CAVOK 23/14 Q1016 NOSIG

VFR

23°C / 14°C

[Plus]
Vent 140º 8kt
Visibilité >10km
Météo -
Nuages Clouds and Visibility OK
Pression 1016
Changement No Significant change
Brut LKPR 182100Z 14008KT CAVOK 23/14 Q1016 NOSIG

VFR

23°C / 14°C

[Plus]
Vent 130º 9kt
Visibilité >10km
Météo -
Nuages Clouds and Visibility OK
Pression 1016
Changement No Significant change
Brut LKPR 182030Z 13009KT CAVOK 23/14 Q1016 NOSIG

VFR

23°C / 14°C

[Plus]
Vent 130º 9kt
Visibilité >10km
Météo -
Nuages Clouds and Visibility OK
Pression 1015
Changement No Significant change
Brut LKPR 182000Z 13009KT CAVOK 23/14 Q1015 NOSIG

VFR

24°C / 14°C

[Plus]
Vent 130º 8kt
Visibilité >10km
Météo -
Nuages Clouds and Visibility OK
Pression 1015
Changement No Significant change
Brut LKPR 181930Z 13008KT CAVOK 24/14 Q1015 NOSIG

VFR

25°C / 14°C

[Plus]
Vent 130º 9kt
Visibilité >10km
Météo -
Nuages Clouds and Visibility OK
Pression 1015
Changement No Significant change
Brut LKPR 181900Z 13009KT CAVOK 25/14 Q1015 NOSIG

VFR

27°C / 14°C

[Plus]
Vent 130º 9kt
Visibilité >10km
Météo -
Nuages Clouds and Visibility OK
Pression 1015
Changement No Significant change
Brut LKPR 181830Z 13009KT CAVOK 27/14 Q1015 NOSIG

VFR

27°C / 15°C

[Plus]
Vent 130º 11kt
Visibilité >10km
Météo -
Nuages Clouds and Visibility OK
Pression 1015
Changement No Significant change
Brut LKPR 181800Z 13011KT CAVOK 27/15 Q1015 NOSIG

VFR

29°C / 14°C

[Plus]
Vent 130º 8kt
Visibilité >10km
Météo -
Nuages Clouds and Visibility OK
Pression 1015
Changement No Significant change
Brut LKPR 181730Z 13008KT CAVOK 29/14 Q1015 NOSIG

VFR

29°C / 14°C

[Plus]
Vent 140º 8kt
Visibilité >10km
Météo -
Nuages Clouds and Visibility OK
Pression 1015
Changement No Significant change
Brut LKPR 181700Z 14008KT CAVOK 29/14 Q1015 NOSIG

TAF pour 50.1°N 14.27°E (LKPR)

From till


From till Wind 140º 7kt. Visibility 10km or more. Nil Significant Cloud.
Temporarly from till Visibility 10km or more. Scattered Clouds 4500ft.
With 30% probability, Temporarly from till Visibility 8000m. Showers Rain . Scattered Clouds 3500ft.

Brut: TAF LKPR 182300Z 1900/2006 14007KT CAVOK TEMPO 1911/1917 9999 SCT045 PROB30 TEMPO 1912/1916 8000 SHRA SCT035TCU

rainNOW

0.0 mm
0.0 mm
0.0 mm
0.0 mm
0.0 mm
0.0 mm
0.0 mm
0.0 mm
0.0 mm
0.0 mm
0.0 mm
0.0 mm

Les images satellites et les pluies actuelles pour 50.1°N 14.27°E

Le marqueur de lieu est placé sur 50.1°N 14.27°E. [Plus]

L'image satellite en temps réel combine la lumière visible pendant la journée et le rayonnement infrarouge pendant la nuit. La nuit, l'image n'est pas sombre car le rayonnement infrarouge permet de détecter les différences de température. Malheureusement, les nuages bas et le brouillard sont difficiles à distinguer des températures au sol et peuvent donc être presque invisibles pendant la nuit. Les images des satellites Météosat pour l'Europe sont mises à jour en temps réel toutes les 5 minutes. Les images GOES-16/GOES-17 (Amérique du Nord et du Sud) et Himawari (Asie) sont mises à jour toutes les 10 minutes.

La précipitation est estimée à partir des radars et des satellites. Les calculs des précipitations pour la nuit par le satellite sont moins précises que pour le jour. Les croix oranges marquent les lieux où la foudre a été détectée (sur Europe).

Copyright 2021 EUMETSAT / meteoblue. Données de foudre fournies par nowcast.

Radar et prévision de précipitation à courte échéance pour 50.1°N 14.27°E

Le marqueur de position est placé sur 50.1°N 14.27°E. Cette animation montre le Radar des précipitations pour les dernières heures, ainsi qu'une 1h prévision. La bruine ou les légères chutes de neiges peuvent ne pas être détectées par le radar. L'intensité des précipitations est visible avec un code couleur allant du bleu clair au violet foncé.